| time (UTC) | temp F | wind direction | speed knots | gust knots | rain 1hr in | rain 24hr in | rain mn in | humidity % | barometer mb |
| 20260504150529 | 57 | 276 | 7.8 | 20.9 | 0.00 | 0.00 | 0.00 | 59 | 1017.6 |
| 20260504140512 | 59 | 326 | 8.7 | 18.2 | 0.00 | 0.00 | 0.00 | 53 | 1016.9 |
| 20260504130516 | 56 | 313 | 6.1 | 8.7 | 0.00 | 0.00 | 0.00 | 56 | 1016.9 |
| 20260504110527 | 47 | 269 | 2.6 | 6.1 | 0.00 | 0.00 | 0.00 | 69 | 1016.5 |
| 20260504100527 | 48 | 273 | 3.5 | 7.0 | 0.00 | 0.00 | 0.00 | 62 | 1016.6 |
| 20260504081502 | 47 | 270 | 5.2 | 7.0 | 0.00 | 0.00 | 0.00 | 60 | 1016.8 |
| 20260504080510 | 47 | 258 | 4.3 | 6.1 | 0.00 | 0.00 | 0.00 | 60 | 1016.8 |
| 20260504050510 | 45 | 258 | 2.6 | 5.2 | 0.00 | 0.00 | 0.00 | 56 | 1016.7 |
| 20260504045502 | 48 | 263 | 3.5 | 5.2 | 0.00 | 0.00 | 0.00 | 51 | 1016.7 |
| 20260504044508 | 49 | 279 | 4.3 | 7.0 | 0.00 | 0.00 | 0.00 | 44 | 1016.6 |
| 20260504043516 | 50 | 279 | 3.5 | 6.1 | 0.00 | 0.00 | 0.00 | 44 | 1016.6 |
| 20260504042503 | 49 | 293 | 4.3 | 6.1 | 0.00 | 0.00 | 0.00 | 45 | 1016.7 |
| 20260504041532 | 49 | 284 | 3.5 | 5.2 | 0.00 | 0.00 | 0.00 | 45 | 1016.6 |
| 20260504040515 | 48 | 283 | 4.3 | 5.2 | 0.00 | 0.00 | 0.00 | 46 | 1016.5 |
| 20260504035505 | 48 | 280 | 3.5 | 5.2 | 0.00 | 0.00 | 0.00 | 46 | 1016.6 |
| 20260504034512 | 48 | 278 | 2.6 | 5.2 | 0.00 | 0.00 | 0.00 | 46 | 1016.6 |
| 20260504033502 | 46 | 270 | 4.3 | 6.1 | 0.00 | 0.00 | 0.00 | 50 | 1016.6 |
| 20260504032510 | 45 | 254 | 1.7 | 3.5 | 0.00 | 0.00 | 0.00 | 51 | 1016.6 |
| 20260504031516 | 45 | 256 | 1.7 | 3.5 | 0.00 | 0.00 | 0.00 | 51 | 1016.5 |
| 20260504030504 | 45 | 256 | 3.5 | 6.1 | 0.00 | 0.00 | 0.00 | 53 | 1016.5 |
| 20260504025512 | 45 | 230 | 3.5 | 6.1 | 0.00 | 0.00 | 0.00 | 53 | 1016.7 |
| 20260504024515 | 47 | 232 | 4.3 | 6.1 | 0.00 | 0.00 | 0.00 | 49 | 1016.7 |
| 20260504023503 | 47 | 242 | 4.3 | 5.2 | 0.00 | 0.00 | 0.00 | 49 | 1016.8 |
| 20260504022527 | 48 | 242 | 3.5 | 4.3 | 0.00 | 0.00 | 0.00 | 48 | 1016.8 |
| 20260504021535 | 49 | 254 | 4.3 | 6.1 | 0.00 | 0.00 | 0.00 | 44 | 1016.6 |
| 20260504020522 | 48 | 281 | 4.3 | 6.1 | 0.00 | 0.00 | 0.00 | 44 | 1016.5 |
| 20260504015515 | 49 | 280 | 2.6 | 7.0 | 0.00 | 0.00 | 0.00 | 44 | 1016.4 |
| 20260504014520 | 50 | 267 | 5.2 | 8.7 | 0.00 | 0.00 | 0.00 | 41 | 1016.4 |
| 20260504013506 | 50 | 275 | 3.5 | 7.0 | 0.00 | 0.00 | 0.00 | 40 | 1016.1 |
| 20260504012516 | 50 | 247 | 2.6 | 4.3 | 0.00 | 0.00 | 0.00 | 41 | 1016.1 |
| 20260504011502 | 52 | 275 | 2.6 | 5.2 | 0.00 | 0.00 | 0.00 | 37 | 1016.0 |
| 20260504010508 | 52 | 281 | 2.6 | 7.0 | 0.00 | 0.00 | 0.00 | 35 | 1015.9 |
| 20260504005515 | 52 | 276 | 4.3 | 7.0 | 0.00 | 0.00 | 0.00 | 36 | 1015.9 |
| 20260504004503 | 52 | 257 | 2.6 | 5.2 | 0.00 | 0.00 | 0.00 | 38 | 1015.7 |
| 20260504003508 | 53 | 269 | 2.6 | 5.2 | 0.00 | 0.00 | 0.00 | 36 | 1015.8 |
| 20260504002514 | 54 | 273 | 2.6 | 11.3 | 0.00 | 0.00 | 0.00 | 34 | 1015.7 |
| 20260504001520 | 54 | 296 | 6.1 | 11.3 | 0.00 | 0.00 | 0.00 | 33 | 1015.8 |
| 20260504000508 | 55 | 275 | 3.5 | 7.0 | 0.00 | 0.00 | 0.00 | 34 | 1015.8 |
| 20260503235536 | 56 | 295 | 3.5 | 6.1 | 0.00 | 0.00 | 0.00 | 34 | 1015.8 |
| 20260503234503 | 56 | 270 | 3.5 | 7.8 | 0.00 | 0.00 | 0.00 | 32 | 1015.8 |
| 20260503233512 | 57 | 292 | 6.1 | 10.4 | 0.00 | 0.00 | 0.00 | 32 | 1015.7 |
| 20260503232537 | 58 | 277 | 3.5 | 9.6 | 0.00 | 0.00 | 0.00 | 32 | 1015.6 |
| 20260503231504 | 58 | 262 | 6.1 | 11.3 | 0.00 | 0.00 | 0.00 | 31 | 1015.5 |
| 20260503230512 | 59 | 261 | 8.7 | 12.2 | 0.00 | 0.00 | 0.00 | 33 | 1015.5 |
| 20260503225539 | 59 | 289 | 6.1 | 10.4 | 0.00 | 0.00 | 0.00 | 31 | 1015.6 |
| 20260503224510 | 59 | 229 | 7.8 | 15.6 | 0.00 | 0.00 | 0.00 | 31 | 1015.6 |
| 20260503223521 | 60 | 284 | 7.0 | 10.4 | 0.00 | 0.00 | 0.00 | 29 | 1015.6 |
| 20260503222507 | 60 | 288 | 3.5 | 9.6 | 0.00 | 0.00 | 0.00 | 30 | 1015.6 |
| 20260503221512 | 60 | 257 | 4.3 | 11.3 | 0.00 | 0.00 | 0.00 | 29 | 1015.6 |
| 20260503220518 | 61 | 259 | 5.2 | 9.6 | 0.00 | 0.00 | 0.00 | 30 | 1015.7 |
| 20260503215506 | 61 | 275 | 4.3 | 7.8 | 0.00 | 0.00 | 0.00 | 29 | 1015.7 |
| 20260503214529 | 61 | 261 | 5.2 | 13.0 | 0.00 | 0.00 | 0.00 | 28 | 1015.8 |
| 20260503213512 | 61 | 244 | 6.1 | 13.9 | 0.00 | 0.00 | 0.00 | 26 | 1015.9 |
| 20260503212517 | 61 | 281 | 4.3 | 10.4 | 0.00 | 0.00 | 0.00 | 33 | 1016.0 |
| 20260503211503 | 61 | 294 | 3.5 | 9.6 | 0.00 | 0.00 | 0.00 | 27 | 1016.1 |
| 20260503210510 | 60 | 327 | 7.0 | 14.8 | 0.00 | 0.00 | 0.00 | 28 | 1016.2 |
| 20260503205517 | 60 | 252 | 2.6 | 11.3 | 0.00 | 0.00 | 0.00 | 28 | 1016.4 |
| 20260503204504 | 60 | 278 | 8.7 | 12.2 | 0.00 | 0.00 | 0.00 | 29 | 1016.5 |
| 20260503203509 | 59 | 283 | 1.7 | 15.6 | 0.00 | 0.00 | 0.00 | 32 | 1016.4 |
| 20260503202515 | 59 | 321 | 4.3 | 10.4 | 0.00 | 0.00 | 0.00 | 33 | 1016.5 |
| 20260503201507 | 59 | 309 | 5.2 | 11.3 | 0.00 | 0.00 | 0.00 | 30 | 1016.7 |
| 20260503200536 | 59 | 324 | 7.0 | 10.4 | 0.00 | 0.00 | 0.00 | 31 | 1016.7 |
| 20260503195514 | 59 | 276 | 7.0 | 10.4 | 0.00 | 0.00 | 0.00 | 39 | 1016.7 |
| 20260503194541 | 59 | 327 | 5.2 | 10.4 | 0.00 | 0.00 | 0.00 | 37 | 1016.9 |
| 20260503193505 | 58 | 338 | 2.6 | 11.3 | 0.00 | 0.00 | 0.00 | 39 | 1017.0 |
| 20260503192513 | 58 | 279 | 5.2 | 11.3 | 0.00 | 0.00 | 0.00 | 36 | 1017.1 |
| 20260503191521 | 58 | 300 | 3.5 | 7.8 | 0.00 | 0.00 | 0.00 | 37 | 1017.2 |
| 20260503190505 | 57 | 262 | 6.1 | 10.4 | 0.00 | 0.00 | 0.00 | 39 | 1017.3 |
| 20260503185511 | 57 | 290 | 5.2 | 11.3 | 0.00 | 0.00 | 0.00 | 34 | 1017.5 |
| 20260503184518 | 57 | 284 | 4.3 | 14.8 | 0.00 | 0.00 | 0.00 | 34 | 1017.5 |
| 20260503183504 | 57 | 246 | 3.5 | 8.7 | 0.00 | 0.00 | 0.00 | 38 | 1017.7 |
| 20260503182509 | 56 | 242 | 5.2 | 13.9 | 0.00 | 0.00 | 0.00 | 35 | 1017.7 |
| 20260503181532 | 56 | 310 | 8.7 | 13.0 | 0.00 | 0.00 | 0.00 | 35 | 1018.0 |
| 20260503180515 | 55 | 291 | 6.1 | 12.2 | 0.00 | 0.00 | 0.00 | 37 | 1018.0 |
| 20260503175506 | 54 | 13 | 4.3 | 14.8 | 0.00 | 0.00 | 0.00 | 37 | 1018.1 |
| 20260503174516 | 54 | 348 | 7.0 | 13.9 | 0.00 | 0.00 | 0.00 | 38 | 1018.3 |
| 20260503173504 | 54 | 248 | 9.6 | 13.9 | 0.00 | 0.00 | 0.00 | 42 | 1018.3 |
| 20260503172532 | 53 | 298 | 6.1 | 9.6 | 0.00 | 0.00 | 0.00 | 42 | 1018.4 |
| 20260503171516 | 53 | 314 | 7.0 | 13.9 | 0.00 | 0.00 | 0.00 | 40 | 1018.5 |
| 20260503170501 | 53 | 290 | 6.1 | 10.4 | 0.00 | 0.00 | 0.00 | 45 | 1018.6 |